Weather History for Fort Sill, OK

Change the Weather History Date:

Wednesday, November 21, 2012

  Actual Average Record
Temperature  
Mean Temperature 62 °F -  
Max Temperature 78 °F 64 °F 79 °F (1966)
Min Temperature 45 °F 35 °F 21 °F (1964)
Degree Days  
Heating Degree Days 4    
Growing Degree Days 12 (Base 50)    
Moisture  
Dew Point 48 °F    
Average Humidity 65    
Maximum Humidity 93    
Minimum Humidity 31    
Precipitation  
Precipitation 0.00 in - - ()
Sea Level Pressure  
Sea Level Pressure 30.14 in    
Wind  
Wind Speed 7 mph (SSE)    
Max Wind Speed 18 mph    
Max Gust Speed 25 mph    
Visibility 10 miles    
Events      
Averages and records for this station are not official NWS values.
T = Trace of Precipitation, MM = Missing Value Source: NWS Daily Summary

Daily Weather History Graph

Daily Weather History Graph

Search for Another Location

Airport:

Trip Planner

Search our weather history database for the weather conditions in past years. The results will help you decide how hot, cold, wet, or windy it might be!

Date:

Astronomy

Nov. 21, 2012 Rise Set
Actual Time 7:13 AM CST 5:25 PM CST
Civil Twilight 6:46 AM CST 5:52 PM CST
Nautical Twilight 6:15 AM CST 6:23 PM CST
Astronomical Twilight 5:45 AM CST 6:53 PM CST
Moon 1:28 PM CST (11/21) 12:49 AM CST (11/21)
Length of Visible Light 11h 06m
Length of Day
10h 11m
First Quarter, 62% of the Moon is Illuminated
Nov 21
First Quarter
Nov 28
Full
Dec 6
Last Quarter
Dec 13
New
Dec 19
First Quarter

Hourly Weather History & Observations

Time (CST) Temp. Windchill Dew Point Humidity Pressure Visibility Wind Dir Wind Speed Gust Speed Precip Events Conditions
12:55 AM 48.6 °F - 45.9 °F 90% 30.18 in 10.0 mi NNE 5.8 mph - N/A   Clear
1:55 AM 49.1 °F - 46.6 °F 91% 30.18 in 10.0 mi NNE 4.6 mph - N/A   Clear
2:55 AM 48.0 °F - 45.9 °F 92% 30.18 in 10.0 mi North 5.8 mph - N/A   Clear
3:55 AM 48.0 °F - 45.1 °F 90% 30.18 in 10.0 mi NE 3.5 mph - N/A   Clear
4:55 AM 49.5 °F - 45.5 °F 86% 30.19 in 10.0 mi East 4.6 mph - N/A   Clear
5:55 AM 46.9 °F - 44.1 °F 90% 30.20 in 10.0 mi North 3.5 mph - N/A   Clear
6:55 AM 45.3 °F 44.0 °F 43.5 °F 93% 30.22 in 10.0 mi North 3.5 mph - N/A   Clear
7:55 AM 46.9 °F - 44.4 °F 91% 30.23 in 10.0 mi Calm Calm - N/A   Clear
8:55 AM 54.3 °F - 48.7 °F 81% 30.24 in 10.0 mi Calm Calm - N/A   Clear
9:55 AM 62.2 °F - 52.0 °F 69% 30.23 in 10.0 mi SSE 5.8 mph - N/A   Clear
10:55 AM 66.9 °F - 53.4 °F 62% 30.22 in 10.0 mi SSE 6.9 mph - N/A   Clear
11:55 AM 73.8 °F - 52.0 °F 46% 30.18 in 10.0 mi South 10.4 mph - N/A   Clear
12:55 PM 76.3 °F - 46.9 °F 35% 30.14 in 10.0 mi South 16.1 mph 20.7 mph N/A   Clear
1:55 PM 78.1 °F - 47.3 °F 34% 30.11 in 10.0 mi South 18.4 mph 25.3 mph N/A   Clear
2:55 PM 77.4 °F - 49.3 °F 37% 30.08 in 10.0 mi South 13.8 mph 20.7 mph N/A   Clear
3:55 PM 75.9 °F - 43.5 °F 31% 30.07 in 10.0 mi SSW 13.8 mph 19.6 mph N/A   Clear
4:55 PM 73.8 °F - 45.3 °F 36% 30.07 in 10.0 mi SSW 9.2 mph - N/A   Scattered Clouds
5:55 PM 69.4 °F - 47.7 °F 46% 30.07 in 10.0 mi South 8.1 mph - N/A   Scattered Clouds
6:55 PM 65.1 °F - 48.4 °F 55% 30.08 in 10.0 mi South 8.1 mph - N/A   Mostly Cloudy
7:55 PM 64.0 °F - 50.0 °F 60% 30.08 in 10.0 mi SSE 8.1 mph - N/A   Overcast
8:55 PM 64.8 °F - 50.2 °F 59% 30.06 in 10.0 mi South 11.5 mph - N/A   Partly Cloudy
9:55 PM 62.4 °F - 50.0 °F 64% 30.06 in 10.0 mi South 9.2 mph - N/A   Scattered Clouds
10:55 PM 62.1 °F - 50.0 °F 65% 30.04 in 10.0 mi South 12.7 mph - N/A   Overcast
11:55 PM 61.2 °F - 49.6 °F 66% 30.02 in 10.0 mi South 12.7 mph - N/A   Clear